Weather History for Point Lay, AK

Change the Weather History Date:

Friday, March 14, 2014

  Actual Average Record
Temperature  
Mean Temperature -4 °F -  
Max Temperature 0 °F 0 °F 26 °F (1997)
Min Temperature -7 °F -9 °F -37 °F (2009)
Degree Days  
Heating Degree Days 69    
Moisture  
Dew Point -9 °F    
Average Humidity 82    
Maximum Humidity 85    
Minimum Humidity 78    
Precipitation  
Precipitation 0.00 in - - ()
Sea Level Pressure  
Sea Level Pressure 29.41 in    
Wind  
Wind Speed 18 mph (NE)    
Max Wind Speed 26 mph    
Max Gust Speed -    
Averages and records for this station are not official NWS values.
T = Trace of Precipitation, MM = Missing Value Source: NWS Daily Summary

Daily Weather History Graph

Daily Weather History Graph

Search for Another Location

Airport:

Trip Planner

Search our weather history database for the weather conditions in past years. The results will help you decide how hot, cold, wet, or windy it might be!

Date:

Astronomy

Mar. 14, 2014 Rise Set
Actual Time 9:17 AM AKDT 8:47 PM AKDT
Civil Twilight 8:17 AM AKDT 9:47 PM AKDT
Nautical Twilight 7:04 AM AKDT 11:00 PM AKDT
Astronomical Twilight 5:36 AM AKDT 12:30 AM AKDT
Moon 6:50 PM AKDT (3/14) 8:44 AM AKDT (3/14)
Length of Visible Light 13h 29m
Length of Day
11h 29m
Waxing Gibbous, 97% of the Moon is Illuminated
Mar 14
Waxing Gibbous
Mar 16
Full
Mar 23
Last Quarter
Mar 30
New
Apr 7
First Quarter

Hourly Weather History & Observations

Time (AKDT) Temp. Windchill Dew Point Humidity Pressure Visibility Wind Dir Wind Speed Gust Speed Precip Events Conditions
12:56 AM -4.9 °F -26.3 °F -8.9 °F 83% 29.37 in - NE 16.1 mph - N/A   Mostly Cloudy
1:56 AM -4.0 °F -24.5 °F -8.9 °F 80% 29.39 in - NE 15.0 mph - N/A   Mostly Cloudy
2:56 AM -4.0 °F -24.5 °F -8.9 °F 80% 29.39 in - NNE 15.0 mph - N/A   Clear
3:56 AM -5.8 °F -25.2 °F -9.4 °F 84% 29.39 in - NE 12.7 mph - N/A   Clear
4:56 AM -6.0 °F -25.5 °F -9.9 °F 83% 29.42 in - NE 12.7 mph - N/A   Clear
5:56 AM -6.9 °F -26.6 °F -10.8 °F 83% 29.42 in - NNE 12.7 mph - N/A   Clear
6:56 AM -7.6 °F -29.1 °F -11.2 °F 84% 29.39 in - NNE 15.0 mph - N/A   Clear
9:56 AM -7.6 °F -29.8 °F -11.2 °F 84% 29.41 in - NNE 16.1 mph - N/A   Clear
10:56 AM -6.9 °F -30.2 °F -11.9 °F 79% 29.43 in - NE 18.4 mph - N/A   Clear
11:56 AM -6.9 °F -31.9 °F -10.8 °F 83% 29.42 in - NE 21.9 mph - N/A   Clear
12:56 PM -5.8 °F -30.5 °F -9.4 °F 84% 29.41 in - NE 21.9 mph - N/A   Clear
1:56 PM -2.9 °F -26.7 °F -6.9 °F 83% 29.43 in - NE 21.9 mph - N/A   Clear
2:56 PM -2.9 °F -26.1 °F -6.9 °F 83% 29.44 in - NE 20.7 mph - N/A   Clear
3:56 PM -2.2 °F -25.7 °F -7.6 °F 78% 29.42 in - NE 21.9 mph - N/A   Clear
4:56 PM -1.8 °F -26.2 °F -6.0 °F 83% 29.42 in - NE 24.2 mph - N/A   Clear
5:56 PM -1.8 °F -26.2 °F -6.0 °F 83% 29.42 in - NE 24.2 mph - N/A   Clear
6:56 PM -2.2 °F -26.7 °F -5.8 °F 85% 29.41 in - NE 24.2 mph - N/A   Clear
7:56 PM -4.0 °F -30.0 °F -8.0 °F 83% 29.40 in - NE 26.5 mph - N/A   Clear
8:56 PM -4.0 °F -29.1 °F -8.9 °F 80% 29.42 in - NE 24.2 mph - N/A   Clear
9:08 PM -4.0 °F -28.1 °F -9.4 °F 78% 29.40 in - NE 21.9 mph - N/A   Mostly Cloudy
9:56 PM -5.8 °F -31.5 °F -9.4 °F 84% 29.40 in - NE 24.2 mph - N/A   Clear
10:47 PM -5.8 °F -31.5 °F -9.4 °F 84% 29.40 in - NE 24.2 mph - N/A   Mostly Cloudy
10:56 PM -4.9 °F -28.8 °F -8.9 °F 83% 29.42 in - NE 20.7 mph - N/A   Mostly Cloudy
11:56 PM -4.9 °F -29.8 °F -8.9 °F 83% 29.42 in - NE 23.0 mph - N/A   Mostly Cloudy